Weather Roundup
Issued by NWS Springfield, MO

Home | Current Version | Previous Version | Text Only | Print | Product List | Glossary On
Versions: 1 2 3 4 5 6 7 8 9 10 11 12 13 14 15 16 17 18 19 20 21 22 23 24 25 26 27 28 29 30 31 32 33 34 35 36 37 38 39 40 41 42 43 44 45 46 47 48 49 50
000
NZUS99 KSGF 240907
HRRSGF

HOURLY WEATHER
NATIONAL WEATHER SERVICE SPRINGFIELD MO
400 AM CDT THU APR 24 2014

......SGF CWA......

CITY           SKY/WX    TMP DP  RH WIND       PRES   REMARKS
SPRINGFIELD    MOCLDY    61  42  49 SE20G28   29.77F
JOPLIN         CLOUDY    68  48  48 S21G26    29.67S
WEST PLAINS    CLOUDY    54  37  52 SE5       29.89S
ROLLA          PTCLDY    56  35  45 SE13      29.82F
OSAGE BEACH    MOCLDY    59  36  41 SE12G20   29.81F
BRANSON        CLOUDY    57  41  54 SE10      29.84S

......SURROUNDING SGF CWA......

CITY           SKY/WX    TMP DP  RH WIND       PRES   REMARKS
CHANUTE        CLOUDY    67  54  63 S15       29.65R
PARSONS        CLOUDY    69  54  58 S8        29.66R
COFFEYVILLE    CLOUDY    70  55  59 S13G23    29.63S
EMPORIA        CLOUDY    68  56  65 S26G36    29.57S
GROVE OK       CLOUDY    70  50  49 SE20G28   29.69R
ROGERS AR      CLOUDY    65  45  48 SE16G22   29.78F
SILOAM SPRINGS CLOUDY    64  46  52 S15G22    29.79F
HARRISON AR    CLOUDY    57  42  57 SE10      29.84F
NEAR YELLVILLE CLOUDY    54  39  58 CALM      29.87S

......KANSAS AND MISSOURI......

CITY           SKY/WX    TMP DP  RH WIND       PRES   REMARKS
KANSAS CTY INT CLOUDY    68  48  48 S24G32    29.61R
DOWNTOWN KC    CLOUDY    69  47  45 S12G29    29.60S
COLUMBIA       MOCLDY    57  37  47 SE13      29.79F
SEDALIA        MOCLDY    63  40  42 SE18G26   29.73F
ST JOSEPH      CLOUDY    68  50  52 S12       29.65R
ST LOUIS       MOCLDY    55  33  43 SE13      29.88F
SPIRIT OF STL  MOCLDY    55  32  41 SE7       29.87F
KIRKSVILLE     PTCLDY    53  37  54 SE15      29.75F
WICHITA        MOCLDY    66  58  75 S18G28    29.58R
TOPEKA         CLOUDY    72  55  55 W8        29.63R
OLATHE         CLOUDY    65  47  52 S17G29    29.60S

......TENNESSEE......

CITY           SKY/WX    TMP DP  RH WIND       PRES   REMARKS
MEMPHIS        PTCLDY    59  40  49 VRB5      29.90F
NASHVILLE      CLEAR     47  37  68 CALM      29.98S

......ARKANSAS.......

CITY           SKY/WX    TMP DP  RH WIND       PRES   REMARKS
FAYETTEVILLE   CLOUDY    64  46  52 S12       29.80F
FT SMITH       MOCLDY    62  51  67 NE6       29.83R
LITTLE ROCK    PTCLDY    57  50  77 CALM      29.88S

......OKLAHOMA.......

CITY           SKY/WX    TMP DP  RH WIND       PRES   REMARKS
TULSA          CLOUDY    70  58  65 SE22G37   29.61F
PONCA CITY     PTCLDY    68  57  68 S20G29    29.58S
MCALESTER      LGT RAIN  67  60  78 SE9G26    29.69F
OKLAHOMA CITY  PTCLDY    67  59  75 S16G25    29.66S

......IOWA............

CITY           SKY/WX    TMP DP  RH WIND       PRES   REMARKS
DES MOINES     LGT RAIN  50  41  71 SE15G22   29.69F
QUAD CITIES    CLOUDY    44  37  76 E16       29.92F

......ILLINOIS........

CITY           SKY/WX    TMP DP  RH WIND       PRES   REMARKS
QUINCY         PTCLDY    51  34  52 SE10      29.85F
CHICAGO        CLOUDY    40  31  70 N8        30.08S WCI  34



USA.gov is the U.S. government's official web portal to all federal, state and local government web resources and services.